When you browse on this site, cookies collect data to enhance your experience and personalize the content and advertising you see.
Visit our Privacy Policy to learn more. By continuing to use the site, you agree to this use of cookies and data.
  • In Austria
  • List of Countries
  • For 7 days
  • Water Temperature
  • Weather Map
  • News
  • Weather Widgets
  • user-avatar
    Login

    Hourly Weather Riomaggiore

    Today, 18 August, Sunday

    Time Temperature Precipitation Wind Pressure Humidity
    00:00 +21°C° 0 mm 1 mps 752 mmHg 76%
    01:00 +21°C° 0 mm 1 mps 752 mmHg 77%
    02:00 +21°C° 0 mm 1 mps 752 mmHg 78%
    03:00 +21°C° 0 mm 1 mps 752 mmHg 78%
    04:00 +21°C° 0 mm 1 mps 752 mmHg 79%
    05:00 +21°C° 0 mm 1 mps 752 mmHg 77%
    06:00 +22°C° 0 mm 1 mps 752 mmHg 76%
    07:00 +23°C° 0 mm 1 mps 752 mmHg 74%
    08:00 +25°C° 0 mm 2 mps 752 mmHg 68%
    09:00 +27°C° 0 mm 2 mps 752 mmHg 61%
    10:00 +29°C° 0 mm 2 mps 753 mmHg 54%
    11:00 +29°C° 0 mm 2 mps 752 mmHg 52%
    12:00 +30°C° 0 mm 2 mps 752 mmHg 51%
    13:00 +30°C° 0 mm 2 mps 752 mmHg 49%
    14:00 +30°C° 0 mm 2 mps 752 mmHg 49%
    15:00 +30°C° 0 mm 1 mps 752 mmHg 49%
    16:00 +30°C° 0 mm 1 mps 751 mmHg 49%
    17:00 +28°C° 0 mm 1 mps 751 mmHg 59%
    18:00 +26°C° 0 mm 1 mps 751 mmHg 69%
    19:00 +22°C° 0 mm 0 mps 751 mmHg 79%
    20:00 +23°C° 0 mm 1 mps 751 mmHg 77%
    21:00 +23°C° 0 mm 1 mps 752 mmHg 75%
    22:00 +22°C° 0 mm 1 mps 752 mmHg 72%
    23:00 +22°C° 0 mm 1 mps 752 mmHg 69%

    Tomorrow, 19 August, Monday

    Time Temperature Precipitation Wind Pressure Humidity
    00:00 +22°C° 0 mm 1 mps 752 mmHg 65%
    01:00 +22°C° 0 mm 1 mps 752 mmHg 61%
    02:00 +22°C° 0 mm 1 mps 752 mmHg 62%
    03:00 +20°C° 0 mm 2 mps 751 mmHg 64%
    04:00 +20°C° 0 mm 2 mps 751 mmHg 65%
    05:00 +21°C° 0 mm 2 mps 752 mmHg 67%
    06:00 +23°C° 0 mm 2 mps 752 mmHg 69%
    07:00 +24°C° 0 mm 2 mps 752 mmHg 71%
    08:00 +26°C° 0 mm 2 mps 752 mmHg 65%
    09:00 +28°C° 0 mm 2 mps 752 mmHg 59%
    10:00 +30°C° 0 mm 3 mps 752 mmHg 53%
    11:00 +30°C° 0 mm 3 mps 752 mmHg 50%
    12:00 +31°C° 0 mm 2 mps 752 mmHg 47%
    13:00 +31°C° 0 mm 2 mps 752 mmHg 45%
    14:00 +31°C° 0 mm 2 mps 752 mmHg 45%
    15:00 +31°C° 0 mm 2 mps 752 mmHg 46%
    16:00 +31°C° 0 mm 2 mps 751 mmHg 46%
    17:00 +29°C° 0 mm 1 mps 751 mmHg 56%
    18:00 +27°C° 0 mm 1 mps 751 mmHg 66%
    19:00 +24°C° 0 mm 1 mps 752 mmHg 75%
    20:00 +24°C° 0 mm 1 mps 752 mmHg 70%
    21:00 +24°C° 0 mm 1 mps 752 mmHg 64%
    22:00 +23°C° 0 mm 1 mps 753 mmHg 59%
    23:00 +23°C° 0 mm 1 mps 753 mmHg 56%

    Day after tomorrow, 20 August, Tuesday

    Time Temperature Precipitation Wind Pressure Humidity
    00:00 +23°C° 0 mm 1 mps 753 mmHg 53%
    01:00 +23°C° 0 mm 1 mps 753 mmHg 50%
    02:00 +23°C° 0 mm 1 mps 753 mmHg 50%
    03:00 +23°C° 0 mm 1 mps 753 mmHg 50%
    04:00 +23°C° 0 mm 1 mps 753 mmHg 51%
    05:00 +23°C° 0 mm 1 mps 753 mmHg 53%
    06:00 +24°C° 0 mm 1 mps 753 mmHg 56%
    07:00 +24°C° 0 mm 1 mps 753 mmHg 59%
    08:00 +27°C° 0 mm 1 mps 753 mmHg 53%
    09:00 +29°C° 0 mm 2 mps 753 mmHg 47%
    10:00 +31°C° 0 mm 2 mps 753 mmHg 41%
    11:00 +32°C° 0 mm 1 mps 753 mmHg 40%
    12:00 +33°C° 0 mm 1 mps 753 mmHg 38%
    13:00 +34°C° 0 mm 1 mps 752 mmHg 37%
    14:00 +34°C° 0 mm 1 mps 752 mmHg 36%
    15:00 +33°C° 0 mm 1 mps 752 mmHg 35%
    16:00 +33°C° 0 mm 1 mps 751 mmHg 34%
    17:00 +31°C° 0 mm 1 mps 751 mmHg 44%
    18:00 +26°C° 0 mm 0 mps 751 mmHg 54%
    19:00 +24°C° 0 mm 0 mps 751 mmHg 65%
    20:00 +23°C° 0 mm 0 mps 751 mmHg 61%
    21:00 +25°C° 0 mm 1 mps 751 mmHg 58%
    22:00 +24°C° 0 mm 1 mps 752 mmHg 55%
    23:00 +24°C° 0 mm 1 mps 752 mmHg 54%

    21 August, Wednesday

    Time Temperature Precipitation Wind Pressure Humidity
    00:00 +24°C° 0 mm 2 mps 752 mmHg 54%
    01:00 +22°C° 0 mm 3 mps 751 mmHg 53%
    02:00 +22°C° 0 mm 3 mps 752 mmHg 57%
    03:00 +22°C° 0 mm 3 mps 752 mmHg 61%
    04:00 +21°C° 0 mm 3 mps 752 mmHg 65%
    05:00 +22°C° 0 mm 3 mps 752 mmHg 66%
    06:00 +24°C° 0 mm 2 mps 752 mmHg 67%
    07:00 +24°C° 0 mm 2 mps 752 mmHg 67%
    08:00 +27°C° 0 mm 2 mps 753 mmHg 62%
    09:00 +29°C° 0 mm 2 mps 753 mmHg 56%
    10:00 +31°C° 0 mm 1 mps 753 mmHg 50%
    11:00 +31°C° 0 mm 1 mps 753 mmHg 49%
    12:00 +32°C° 0 mm 1 mps 752 mmHg 47%
    13:00 +34°C° 0 mm 2 mps 752 mmHg 45%
    14:00 +32°C° 0 mm 1 mps 752 mmHg 47%
    15:00 +32°C° 0 mm 1 mps 752 mmHg 48%
    16:00 +32°C° 0 mm 1 mps 752 mmHg 49%
    17:00 +30°C° 0 mm 1 mps 752 mmHg 57%
    18:00 +28°C° 0 mm 2 mps 752 mmHg 66%
    19:00 +26°C° 0 mm 2 mps 752 mmHg 74%
    20:00 +26°C° 0 mm 2 mps 752 mmHg 72%
    21:00 +25°C° 0 mm 1 mps 753 mmHg 71%
    22:00 +25°C° 0 mm 1 mps 753 mmHg 69%
    23:00 +25°C° 0 mm 1 mps 753 mmHg 71%

    22 August, Thursday

    Time Temperature Precipitation Wind Pressure Humidity
    00:00 +25°C° 0 mm 1 mps 753 mmHg 72%
    01:00 +24°C° 0 mm 1 mps 753 mmHg 73%
    02:00 +24°C° 0 mm 1 mps 753 mmHg 75%
    03:00 +24°C° 0 mm 1 mps 753 mmHg 77%
    04:00 +23°C° 0 mm 1 mps 753 mmHg 79%
    05:00 +24°C° 0 mm 1 mps 753 mmHg 79%
    06:00 +24°C° 0 mm 1 mps 753 mmHg 79%
    07:00 +25°C° 0 mm 1 mps 753 mmHg 79%
    08:00 +27°C° 0 mm 1 mps 753 mmHg 71%
    09:00 +29°C° 0 mm 1 mps 753 mmHg 63%
    10:00 +31°C° 0 mm 1 mps 753 mmHg 55%
    11:00 +32°C° 0.1 mm 1 mps 753 mmHg 54%
    12:00 +32°C° 0.1 mm 1 mps 753 mmHg 54%
    13:00 +32°C° 0.1 mm 1 mps 752 mmHg 53%
    14:00 +32°C° 0.2 mm 1 mps 752 mmHg 52%
    15:00 +32°C° 0.2 mm 1 mps 752 mmHg 51%
    16:00 +32°C° 0.2 mm 1 mps 751 mmHg 51%
    17:00 +30°C° 0 mm 1 mps 751 mmHg 57%
    18:00 +29°C° 0 mm 2 mps 751 mmHg 64%
    19:00 +27°C° 0 mm 2 mps 752 mmHg 70%
    20:00 +26°C° 0.1 mm 2 mps 752 mmHg 72%
    21:00 +25°C° 0.1 mm 1 mps 752 mmHg 74%
    22:00 +24°C° 0.1 mm 1 mps 753 mmHg 75%
    23:00 +24°C° 0 mm 1 mps 753 mmHg 75%

    23 August, Friday

    Time Temperature Precipitation Wind Pressure Humidity
    00:00 +24°C° 0 mm 1 mps 753 mmHg 74%
    01:00 +24°C° 0 mm 2 mps 753 mmHg 74%
    02:00 +24°C° 0 mm 2 mps 753 mmHg 75%
    03:00 +23°C° 0 mm 2 mps 752 mmHg 76%
    04:00 +23°C° 0 mm 2 mps 752 mmHg 77%
    05:00 +24°C° 0 mm 2 mps 752 mmHg 77%
    06:00 +24°C° 0 mm 2 mps 753 mmHg 76%
    07:00 +24°C° 0 mm 2 mps 753 mmHg 76%
    08:00 +27°C° 0 mm 2 mps 753 mmHg 67%
    09:00 +29°C° 0 mm 2 mps 753 mmHg 58%
    10:00 +32°C° 0 mm 1 mps 753 mmHg 48%
    11:00 +32°C° 0.1 mm 1 mps 753 mmHg 48%
    12:00 +32°C° 0.1 mm 1 mps 753 mmHg 48%
    13:00 +33°C° 0.1 mm 1 mps 753 mmHg 48%
    14:00 +34°C° 0.1 mm 2 mps 752 mmHg 48%
    15:00 +32°C° 0.1 mm 2 mps 752 mmHg 47%
    16:00 +32°C° 0.1 mm 2 mps 752 mmHg 47%
    17:00 +31°C° 0.1 mm 3 mps 752 mmHg 54%
    18:00 +29°C° 0.1 mm 3 mps 752 mmHg 61%
    19:00 +27°C° 0.1 mm 4 mps 752 mmHg 68%
    20:00 +26°C° 0.1 mm 3 mps 752 mmHg 71%
    21:00 +25°C° 0.1 mm 2 mps 753 mmHg 73%
    22:00 +24°C° 0.1 mm 2 mps 753 mmHg 76%
    23:00 +24°C° 0 mm 2 mps 753 mmHg 77%
    Show more